LILACSAT-2

Last updated on Thu Oct 30 2025 00:03:10 GMT+0000 (Coordinated Universal Time)

1 40908U 15049K 25302.53082741 .00017796 00000+0 40633-3 0 9990 2 40908 97.4976 326.5993 0008886 23.0411 337.1233 15.42892999560082
UTC large
Height (km)
Speed (km/s)
/
Latitude / Longitude
Inclination (degrees)
Orbital Period (minutes)
Azimuth
Elevation
Range (km)
Doppler Factor

Next 0 passes for location: London (51.5072 / 0.1276)

Sorry there are no passes over London.